Time,TemperatureF,DewpointF,PressureIn,WindDirection,WindDirectionDegrees,WindSpeedMPH,WindSpeedGustMPH,Humidity,HourlyPrecipIn,Conditions,Clouds,dailyrainin,SoftwareType,DateUTC
2013-02-11 00:00:00,35.5,18.2,30.08,NE,45,3.0,6.0,49,0.00,,,-99.99,VWS V12.05,2013-02-11 05:00:00,
2013-02-11 00:30:00,35.3,19.0,30.08,NE,51,0.0,6.0,51,0.00,,,-99.99,VWS V12.05,2013-02-11 05:30:00,
2013-02-11 01:00:00,35.8,19.5,30.06,South,182,1.0,6.0,51,0.00,,,-99.99,VWS V12.05,2013-02-11 06:00:00,
2013-02-11 01:30:00,36.0,23.5,30.05,East,82,0.0,6.0,60,0.00,,,-99.99,VWS V12.05,2013-02-11 06:30:00,
2013-02-11 02:00:00,36.5,29.7,30.03,NE,49,1.0,10.0,76,0.00,,,-99.99,VWS V12.05,2013-02-11 07:00:00,
2013-02-11 02:30:00,34.9,30.6,30.02,North,3,0.0,3.0,84,0.02,,,-99.99,VWS V12.05,2013-02-11 07:30:00,
2013-02-11 03:00:00,35.0,31.8,30.00,NE,51,0.0,5.0,88,0.04,,,-99.99,VWS V12.05,2013-02-11 08:00:00,
2013-02-11 03:30:00,35.2,32.3,29.97,ENE,65,0.0,6.0,89,0.06,,,-99.99,VWS V12.05,2013-02-11 08:30:00,
2013-02-11 04:00:00,34.4,31.8,29.96,South,171,0.0,6.0,90,0.08,,,-99.99,VWS V12.05,2013-02-11 09:00:00,
2013-02-11 04:30:00,34.3,32.0,29.95,South,171,0.0,1.0,91,0.08,,,-99.99,VWS V12.05,2013-02-11 09:30:00,
2013-02-11 05:00:00,34.3,32.0,29.93,South,171,0.0,2.0,91,0.07,,,-99.99,VWS V12.05,2013-02-11 10:00:00,
2013-02-11 05:30:00,34.1,32.0,29.91,SSW,212,1.0,2.0,92,0.04,,,-99.99,VWS V12.05,2013-02-11 10:30:00,
2013-02-11 06:00:00,34.9,32.8,29.90,SSW,206,0.0,3.0,92,0.01,,,-99.99,VWS V12.05,2013-02-11 11:00:00,
2013-02-11 06:30:00,34.9,32.8,29.89,ENE,75,0.0,3.0,92,0.00,,,-99.99,VWS V12.05,2013-02-11 11:30:00,
2013-02-11 07:00:00,35.3,33.5,29.88,ENE,75,0.0,3.0,93,0.00,,,-99.99,VWS V12.05,2013-02-11 12:00:00,
2013-02-11 07:30:00,36.0,34.2,29.86,ENE,75,0.0,2.0,93,0.00,,,-99.99,VWS V12.05,2013-02-11 12:30:00,
2013-02-11 08:00:00,36.5,34.7,29.85,ENE,75,0.0,2.0,93,0.00,,,-99.99,VWS V12.05,2013-02-11 13:00:00,
2013-02-11 08:30:00,37.0,35.2,29.85,ENE,75,0.0,1.0,93,0.00,,,-99.99,VWS V12.05,2013-02-11 13:30:00,
2013-02-11 09:00:00,37.8,36.2,29.84,ENE,75,0.0,1.0,94,0.00,,,-99.99,VWS V12.05,2013-02-11 14:00:00,
2013-02-11 09:30:00,39.1,37.5,29.84,ENE,75,0.0,2.0,94,0.00,,,-99.99,VWS V12.05,2013-02-11 14:30:00,
2013-02-11 10:00:00,39.6,38.0,29.81,ENE,75,0.0,2.0,94,0.01,,,-99.99,VWS V12.05,2013-02-11 15:00:00,
2013-02-11 10:30:00,40.9,39.3,29.80,ENE,73,0.0,3.0,94,0.01,,,-99.99,VWS V12.05,2013-02-11 15:30:00,
2013-02-11 11:00:00,43.6,42.0,29.77,NNE,13,3.0,6.0,94,0.00,,,-99.99,VWS V12.05,2013-02-11 16:00:00,
2013-02-11 11:30:00,45.8,43.6,29.75,East,80,1.0,5.0,92,0.00,,,-99.99,VWS V12.05,2013-02-11 16:30:00,
2013-02-11 12:00:00,47.6,43.9,29.72,NNE,24,1.0,5.0,87,0.00,,,-99.99,VWS V12.05,2013-02-11 17:00:00,
2013-02-11 12:30:00,49.5,44.2,29.68,NNW,329,0.0,5.0,82,0.00,,,-99.99,VWS V12.05,2013-02-11 17:30:00,
2013-02-11 13:00:00,50.2,44.3,29.66,ENE,61,1.0,6.0,80,0.00,,,-99.99,VWS V12.05,2013-02-11 18:00:00,
2013-02-11 13:30:00,50.5,44.6,29.65,SSE,151,0.0,6.0,80,0.00,,,-99.99,VWS V12.05,2013-02-11 18:30:00,
2013-02-11 14:00:00,52.2,44.9,29.62,SE,136,1.0,6.0,76,0.00,,,-99.99,VWS V12.05,2013-02-11 19:00:00,
2013-02-11 14:30:00,53.1,45.8,29.61,West,270,1.0,7.0,76,0.00,,,-99.99,VWS V12.05,2013-02-11 19:30:00,
2013-02-11 15:00:00,53.5,45.4,29.59,SE,136,1.0,7.0,74,0.00,,,-99.99,VWS V12.05,2013-02-11 20:00:00,
2013-02-11 15:30:00,54.4,46.3,29.58,East,85,0.0,3.0,74,0.00,,,-99.99,VWS V12.05,2013-02-11 20:30:00,
2013-02-11 16:00:00,54.1,46.0,29.58,NE,41,1.0,5.0,74,0.00,,,-99.99,VWS V12.05,2013-02-11 21:00:00,
2013-02-11 16:30:00,51.7,45.1,29.57,NNE,24,0.0,5.0,78,0.00,,,-99.99,VWS V12.05,2013-02-11 21:30:00,
2013-02-11 17:00:00,49.5,43.9,29.56,NNE,24,0.0,5.0,81,0.00,,,-99.99,VWS V12.05,2013-02-11 22:00:00,
2013-02-11 17:30:00,47.3,42.7,29.56,NNE,24,1.0,5.0,84,0.00,,,-99.99,VWS V12.05,2013-02-11 22:30:00,
2013-02-11 18:00:00,46.0,42.3,29.56,NNE,24,2.0,5.0,87,0.00,,,-99.99,VWS V12.05,2013-02-11 23:00:00,
2013-02-11 18:30:00,45.4,41.8,29.57,SW,232,1.0,4.0,87,0.00,,,-99.99,VWS V12.05,2013-02-11 23:30:00,
2013-02-11 19:00:00,45.1,40.9,29.58,SSW,206,2.0,5.0,85,0.00,,,-99.99,VWS V12.05,2013-02-12 00:00:00,
2013-02-11 19:30:00,45.7,37.2,29.58,WSW,237,1.0,6.0,72,0.00,,,-99.99,VWS V12.05,2013-02-12 00:30:00,
2013-02-11 20:00:00,49.2,29.3,29.58,NNE,20,1.0,7.0,46,0.00,,,-99.99,VWS V12.05,2013-02-12 01:00:00,
2013-02-11 20:30:00,51.4,24.7,29.60,NNE,28,5.0,7.0,35,0.00,,,-99.99,VWS V12.05,2013-02-12 01:30:00,
2013-02-11 21:00:00,52.6,23.6,29.62,North,6,6.0,12.0,32,0.00,,,-99.99,VWS V12.05,2013-02-12 02:00:00,
2013-02-11 21:30:00,49.5,30.6,29.65,NNE,14,6.0,14.0,48,0.00,,,-99.99,VWS V12.05,2013-02-12 02:30:00,
2013-02-11 22:00:00,47.0,31.2,29.67,North,7,5.0,14.0,54,0.00,,,-99.99,VWS V12.05,2013-02-12 03:00:00,
2013-02-11 22:30:00,44.5,31.5,29.69,North,7,5.0,9.0,60,0.00,,,-99.99,VWS V12.05,2013-02-12 03:30:00,
2013-02-11 23:00:00,43.2,29.9,29.70,North,7,5.0,10.0,59,0.00,,,-99.99,VWS V12.05,2013-02-12 04:00:00,
2013-02-11 23:30:00,41.8,29.4,29.70,NNE,16,1.0,10.0,61,0.00,,,-99.99,VWS V12.05,2013-02-12 04:30:00,